CYGFM08 (41888 NORAD) Tracking and Keplerian Element Data

This shows tracking and keplerian element data for the satellite.

Feedback or suggestion? Click here.




ElementValue
Catalog41888
NameCYGFM08
Epoch Orbit10583
Epoch Day317.49748244
Epoch Year2018
RAAN72.3138
Inclination34.9508
Eccentricity0.0016325
Argument of Perigee256.1706
Mean Anonmoly103.7188
Mean Motion15.14471852
Decay Rate4.14E-06
L11 41888U 16078E 18317.49748244 .00000414 00000-0 23684-4 0 9999
L22 41888 34.9508 72.3138 0016325 256.1706 103.7188 15.14471852105831

Live tracking and technical data element details for CYGFM08 (NORAD 41888). CYGFM08 can be tracked NOW for your location showing map with azimuth and elevation plus other details from your city location.

Track the satellite on the map from your city or location and see movement details for azimuth, elevation, latitude, longitude, range, height, and movement on the map or in text.







IsCatalogInMostPopularTable: catalog: 41888, numindb: 139
Update: records affected: 1



GetName: 41888 CYGFM08

Hit Count: updated at: Wed, 14 Nov 2018 15:07:30 GMT